[[[{"header":{"parameterUnit":"kt","parameterCategory":2,"dx":1,"dy":1,"la1":30.253999710083008,"la2":30.299108505249023,"lo1":-89.0895004272461,"lo2":-89.04439544677734,"nx":28,"ny":28,"refTime":"2022-10-23T21:00:00:Z","depth":"0","parameterNumber":2,"parameterNumberName":"U-component_of_CURRENTS"},"data":[-0.179,-0.1802,-0.1836,-0.1911,-0.1987,-0.2028,-0.2057,-0.2047,-0.2104,-0.2198,-0.2389,-0.2609,-0.2859,-0.3395,-0.3408,-0.3262,-0.3073,-0.3068,-0.2935,-0.2972,-0.2953,-0.2934,-0.2965,-0.3114,-0.3114,-0.282,-0.2819,-0.2817,-0.183,-0.1863,-0.193,-0.2025,-0.2104,-0.2188,-0.2304,-0.2284,-0.2333,-0.2489,-0.2591,-0.2897,-0.3049,-0.3137,-0.3238,-0.3158,-0.2993,-0.3045,-0.294,-0.2843,-0.2906,-0.2942,-0.3089,-0.3089,-0.3089,-0.3089,-0.3089,-0.3089,-0.1904,-0.1927,-0.1994,-0.2071,-0.2174,-0.2279,-0.23,-0.2418,-0.2504,-0.258,-0.2743,-0.2831,-0.3016,-0.3043,-0.2996,-0.297,-0.2857,-0.2888,-0.2868,-0.2813,-0.2768,-0.2863,-0.2965,-0.2964,-0.2963,-0.2963,-0.2963,0,-0.1954,-0.1988,-0.2045,-0.2134,-0.2205,-0.2303,-0.2394,-0.2449,-0.257,-0.2638,-0.2745,-0.2803,-0.2882,-0.291,-0.2893,-0.2825,-0.2648,-0.2697,-0.2674,-0.27,-0.268,-0.2589,-0.2593,-0.2669,-0.2667,-0.2665,-0.2664,-0.2663,-0.1984,-0.202,-0.2133,-0.2176,-0.222,-0.2294,-0.2358,-0.245,-0.2514,-0.2631,-0.2667,-0.2714,-0.2765,-0.2735,-0.2695,-0.2648,-0.2545,-0.2639,-0.2609,-0.2623,-0.2601,-0.2551,-0.2476,-0.2638,-0.2641,-0.2644,-0.2646,0,-0.1989,-0.2056,-0.2133,-0.2236,-0.2267,-0.2308,-0.2411,-0.2466,-0.252,-0.2588,-0.2601,-0.2634,-0.264,-0.2578,-0.2504,-0.2469,-0.2436,-0.2437,-0.2487,-0.2491,-0.2574,-0.2561,-0.2592,-0.2516,-0.2517,-0.252,-0.2523,0,-0.2018,-0.2069,-0.2163,-0.22,-0.2272,-0.2335,-0.24,-0.244,-0.2496,-0.2549,-0.254,-0.2575,-0.249,-0.2473,-0.2403,-0.24,-0.235,-0.2368,-0.2363,-0.2386,-0.2397,-0.2382,-0.2369,-0.2248,-0.2248,-0.2248,-0.2248,0,-0.1994,-0.2105,-0.217,-0.2203,-0.2306,-0.2336,-0.2377,-0.2423,-0.2461,-0.2484,-0.2511,-0.2485,-0.2477,-0.2423,-0.237,-0.2344,-0.2323,-0.2275,-0.2338,-0.2344,-0.2366,-0.2376,-0.2421,-0.2248,-0.2248,-0.2248,-0.2248,0,-0.2013,-0.2073,-0.2156,-0.2251,-0.2275,-0.2314,-0.2376,-0.2413,-0.2436,-0.2444,-0.2438,-0.2423,-0.2407,-0.2366,-0.2322,-0.2323,-0.2287,-0.2254,-0.2253,-0.2341,-0.2318,-0.2351,-0.242,-0.2414,-0.2229,-0.2229,-0.2229,0,-0.1975,-0.2067,-0.2109,-0.2188,-0.2237,-0.2265,-0.2305,-0.2334,-0.2344,-0.2366,-0.2333,-0.2347,-0.2308,-0.231,-0.229,-0.226,-0.225,-0.2249,-0.2207,-0.2206,-0.2294,-0.2356,-0.2396,-0.2411,-0.2228,-0.2228,-0.2228,0,-0.1942,-0.2041,-0.2049,-0.209,-0.2151,-0.2183,-0.2222,-0.226,-0.2286,-0.2282,-0.2304,-0.2296,-0.2278,-0.2275,-0.2256,-0.224,-0.2246,-0.2217,-0.2215,-0.2212,-0.223,-0.2339,-0.235,-0.2225,-0.2225,-0.2225,-0.2227,0,-0.1953,-0.1996,-0.2022,-0.2084,-0.2114,-0.2153,-0.218,-0.22,-0.22,-0.2207,-0.222,-0.2203,-0.2208,-0.2203,-0.2191,-0.2204,-0.2196,-0.2174,-0.2147,-0.2176,-0.2174,-0.2175,-0.215,-0.2149,-0.2149,-0.2148,0,0,-0.19,-0.1955,-0.1977,-0.2023,-0.2051,-0.206,-0.2103,-0.2116,-0.2143,-0.2149,-0.2133,-0.2144,-0.2132,-0.2147,-0.2158,-0.2154,-0.2147,-0.2147,-0.2166,-0.2168,-0.217,-0.2169,-0.2171,-0.2147,-0.2147,-0.2146,-0.2146,0,-0.1907,-0.1926,-0.1964,-0.1993,-0.2033,-0.205,-0.2061,-0.2093,-0.2097,-0.2121,-0.2106,-0.2105,-0.2114,-0.2109,-0.2107,-0.2143,-0.2118,-0.2145,-0.2173,-0.216,-0.2163,-0.2166,-0.2166,-0.2168,-0.2145,-0.2145,-0.2145,0,-0.1886,-0.1916,-0.1932,-0.1979,-0.1997,-0.2036,-0.2021,-0.2052,-0.2075,-0.2047,-0.2071,-0.2063,-0.2054,-0.2071,-0.2075,-0.2062,-0.2088,-0.2082,-0.2086,-0.209,-0.2075,-0.2079,-0.2083,-0.2035,-0.2034,-0.2034,0,0,-0.1889,-0.192,-0.1956,-0.1981,-0.1998,-0.2015,-0.2029,-0.2037,-0.2049,-0.2051,-0.2047,-0.2042,-0.2045,-0.2044,-0.2047,-0.2061,-0.2048,-0.207,-0.2075,-0.2079,-0.2085,-0.2072,-0.2076,-0.2033,-0.2033,-0.2033,0,0,-0.1886,-0.1933,-0.1933,-0.1969,-0.1994,-0.202,-0.2034,-0.2036,-0.2043,-0.2038,-0.2022,-0.2019,-0.2033,-0.2024,-0.2011,-0.2036,-0.2014,-0.2016,-0.2041,-0.2048,-0.2053,-0.2059,-0.1983,0,0,0,0,0,-0.1906,-0.193,-0.1931,-0.194,-0.1983,-0.2021,-0.2025,-0.203,-0.2019,-0.2032,-0.2025,-0.2006,-0.2016,-0.2004,-0.2003,-0.2017,-0.2019,-0.2021,-0.2024,-0.206,-0.2066,-0.2072,0,0,0,0,0,0,-0.1909,-0.192,-0.193,-0.1958,-0.1968,-0.2019,-0.2001,-0.2002,-0.2018,-0.2016,-0.2009,-0.2006,-0.1994,-0.2003,-0.2003,-0.2016,-0.1983,-0.202,-0.2022,-0.2024,-0.2062,-0.2067,-0.2072,0,0,0,0,0,-0.1912,-0.1921,-0.1989,-0.1957,-0.1966,-0.1981,-0.2,-0.2001,-0.201,-0.2003,-0.2001,-0.2013,-0.1995,-0.1993,-0.2003,-0.2016,-0.1983,-0.1983,-0.2021,-0.2023,-0.2024,-0.2065,0,0,0,0,0,0,-0.1914,-0.1916,-0.1991,-0.1994,-0.1948,-0.1978,-0.1983,-0.2,-0.1995,-0.1994,-0.2006,-0.2004,-0.1996,-0.1994,-0.1993,-0.2018,-0.1983,-0.1983,-0.1983,-0.2022,-0.2024,-0.2025,0,0,0,0,0,0,-0.1912,-0.1919,-0.1992,-0.1981,-0.1982,-0.1975,-0.198,-0.1982,-0.1993,-0.1996,-0.1996,-0.2005,-0.1988,-0.1995,-0.1994,-0.1999,-0.1983,-0.1983,-0.1983,-0.1983,-0.2023,-0.2025,0,0,0,0,0,0,-0.1915,-0.1921,-0.198,-0.1981,-0.1982,-0.201,-0.1976,-0.2012,-0.2008,-0.1995,-0.2006,-0.2005,-0.1989,-0.1988,-0.1995,-0.2,-0.1999,-0.1983,-0.1983,-0.1983,-0.1983,0,0,0,0,0,0,0,-0.1917,-0.1879,-0.1979,-0.1981,-0.1981,-0.2019,-0.202,-0.202,-0.2008,-0.2007,-0.2006,-0.2005,-0.1983,-0.1983,-0.1983,-0.2001,0,0,-0.1983,-0.1983,0,0,0,0,0,0,0,0,-0.1877,-0.1878,-0.1979,-0.1979,-0.198,-0.2019,-0.202,-0.202,-0.2008,-0.2007,-0.2006,-0.2005,-0.1983,-0.1983,-0.1983,0,0,0,0,0,0,0,0,0,0,0,0,0,0,0,-0.1979,-0.1979,0,-0.2019,-0.202,-0.202,-0.2008,-0.2007,-0.2006,-0.2006,-0.1983,-0.1983,-0.1983,0,0,0,0,0,0,0,0,0,0,0,0,0,0,0,0,0,0,0,0,0,0,0,0,0,0,0,0,0,0,0,0,0,0,0,0,0,0,0,0,0,0,0,0,0,0,0,0,0,0,0,0,0,0,0,0,0,0,0,0,0,0,0,0,0,0,0,0,0]}],[{"header":{"parameterUnit":"kt","parameterCategory":2,"dx":1,"dy":1,"la1":30.253999710083008,"la2":30.299108505249023,"lo1":-89.0895004272461,"lo2":-89.04439544677734,"nx":28,"ny":28,"refTime":"2022-10-23T21:00:00:Z","depth":"0","parameterNumber":3,"parameterNumberName":"V-component_of_CURRENTS"},"data":[-0.0743,-0.0856,-0.0913,-0.1001,-0.102,-0.097,-0.0926,-0.0882,-0.0759,-0.0495,-0.013,0.0238,0.1203,0.2639,0.3379,0.3369,0.3564,0.3494,0.3571,0.3209,0.3148,0.3089,0.3156,0.3679,0.368,0.417,0.4175,0.4179,-0.071,-0.0784,-0.0871,-0.0922,-0.0955,-0.0927,-0.0873,-0.0832,-0.0792,-0.0642,-0.0458,0.0317,0.1017,0.1627,0.2408,0.2643,0.2648,0.2708,0.2814,0.2853,0.2262,0.2305,0.2656,0.2656,0.2656,0.2656,0.2655,0.2655,-0.0648,-0.0704,-0.0766,-0.0836,-0.0857,-0.084,-0.082,-0.0791,-0.0739,-0.0597,-0.0389,-0.0106,0.0615,0.1186,0.1382,0.1884,0.1751,0.1993,0.2058,0.2073,0.2213,0.1507,0.1726,0.1725,0.1724,0.1722,0.1721,0,-0.0592,-0.0604,-0.0644,-0.0723,-0.0742,-0.0738,-0.0717,-0.07,-0.0566,-0.05,-0.0326,-0.0157,0.0291,0.0704,0.1067,0.119,0.1472,0.133,0.158,0.1849,0.1907,0.2019,0.1249,0.1435,0.1432,0.143,0.1428,0.1427,-0.0512,-0.0547,-0.0578,-0.061,-0.0609,-0.0618,-0.0612,-0.052,-0.0482,-0.0298,-0.0261,-0.003,0.0154,0.0517,0.0794,0.1042,0.1169,0.1249,0.1243,0.1479,0.158,0.1616,0.1693,0.1392,0.1397,0.14,0.1403,0,-0.0468,-0.0467,-0.0508,-0.05,-0.0498,-0.0516,-0.0467,-0.0445,-0.0342,-0.0267,-0.0229,-0.0017,0.0189,0.0377,0.0588,0.0706,0.1035,0.0938,0.1007,0.1048,0.1408,0.1478,0.1795,0.1913,0.1111,0.1114,0.1116,0,-0.0391,-0.0415,-0.0414,-0.0433,-0.0458,-0.0398,-0.0385,-0.0328,-0.0234,-0.0183,-0.0041,0.0042,0.023,0.0372,0.0482,0.0686,0.0664,0.0802,0.0835,0.0909,0.092,0.1186,0.1266,0.0757,0.0756,0.0755,0.0755,0,-0.0326,-0.0333,-0.0371,-0.0366,-0.0332,-0.032,-0.0292,-0.0201,-0.0166,-0.0049,-0.0001,0.0135,0.0212,0.0328,0.0478,0.046,0.0655,0.0647,0.0783,0.0788,0.0928,0.0943,0.1271,0.0754,0.0753,0.0753,0.0753,0,-0.0248,-0.0265,-0.0303,-0.0282,-0.0277,-0.0267,-0.0209,-0.0177,-0.0068,-0.0017,0.0073,0.0153,0.0256,0.0279,0.0443,0.0403,0.0475,0.0541,0.0547,0.0653,0.0666,0.0842,0.092,0.1174,0.0604,0.0603,0.0602,0,-0.0194,-0.0231,-0.0196,-0.0212,-0.0225,-0.0156,-0.013,-0.0075,-0.0016,0.0043,0.0135,0.0194,0.0234,0.0267,0.0328,0.0421,0.047,0.0411,0.0563,0.0567,0.0631,0.0676,0.0781,0.0889,0.0584,0.0586,0.0587,0,-0.0149,-0.0137,-0.0139,-0.0143,-0.0097,-0.009,-0.0058,-0.0013,0.0014,0.0074,0.0119,0.0197,0.0244,0.0284,0.0335,0.0388,0.0441,0.0414,0.0418,0.0448,0.0563,0.064,0.066,0.0467,0.0469,0.047,0.0573,0,-0.0096,-0.0096,-0.0101,-0.0085,-0.0065,-0.0063,-0.0012,0.0014,0.0049,0.0091,0.0154,0.0221,0.0288,0.0306,0.0336,0.0393,0.0405,0.0424,0.0446,0.0448,0.0491,0.0502,0.039,0.0391,0.0391,0.0392,0,0,-0.0052,-0.006,-0.0024,-0.0025,-0.0014,0.0039,0.0033,0.0066,0.0115,0.0141,0.015,0.0258,0.0301,0.0364,0.0362,0.0383,0.0417,0.0389,0.0439,0.0444,0.0448,0.0489,0.0499,0.0394,0.0394,0.0394,0.0394,0,-0.0033,-0.0011,-0.0024,-0.0004,0.0026,0.0054,0.0056,0.0097,0.012,0.0152,0.0198,0.0245,0.0304,0.0351,0.0383,0.0389,0.0437,0.0397,0.0383,0.0443,0.0447,0.0451,0.0491,0.0499,0.0397,0.0396,0.0396,0,0.0001,0.002,0.0019,0.0047,0.007,0.0079,0.0114,0.0129,0.0141,0.02,0.0227,0.0271,0.033,0.0365,0.0385,0.0394,0.0458,0.0429,0.0426,0.0437,0.0502,0.0505,0.0508,0.0469,0.0469,0.0469,0,0,0.0017,0.0017,0.0055,0.0055,0.0066,0.0105,0.0119,0.014,0.0176,0.0191,0.0233,0.0281,0.0324,0.0349,0.039,0.0424,0.0465,0.0435,0.0432,0.0429,0.0437,0.0501,0.0504,0.0469,0.0469,0.0469,0,0,0.0027,0.0057,0.0072,0.0073,0.0099,0.0142,0.0145,0.0168,0.0203,0.0207,0.0262,0.0275,0.0312,0.0346,0.0338,0.0395,0.0413,0.0416,0.0367,0.0363,0.036,0.0358,0.0373,0,0,0,0,0,0.0061,0.0053,0.0065,0.0071,0.0111,0.0135,0.0142,0.0172,0.0186,0.0186,0.0229,0.0257,0.0351,0.0345,0.0358,0.0363,0.0467,0.0467,0.0468,0.0413,0.0408,0.0405,0,0,0,0,0,0,0.0063,0.0069,0.0066,0.0106,0.0116,0.0136,0.016,0.0169,0.0186,0.0189,0.0248,0.0259,0.0295,0.0341,0.0353,0.0356,0.0369,0.0467,0.0467,0.0468,0.0411,0.0408,0.0405,0,0,0,0,0,0.0065,0.007,0.0122,0.0107,0.0115,0.0155,0.016,0.0167,0.0182,0.0239,0.0249,0.0202,0.0294,0.0307,0.0348,0.0349,0.0362,0.0366,0.0467,0.0468,0.0468,0.041,0,0,0,0,0,0,0.0067,0.0082,0.0125,0.013,0.0105,0.0155,0.0161,0.0166,0.0232,0.0241,0.0195,0.0197,0.0293,0.0304,0.0313,0.0344,0.0355,0.0359,0.0362,0.0468,0.0468,0.0468,0,0,0,0,0,0,0.0079,0.0085,0.0128,0.0124,0.0128,0.0154,0.016,0.0203,0.0233,0.0185,0.0188,0.0196,0.0286,0.0301,0.0309,0.0374,0.035,0.0354,0.0357,0.0359,0.0468,0.0468,0,0,0,0,0,0,0.0083,0.0087,0.0123,0.0126,0.013,0.0183,0.0194,0.0238,0.0213,0.0183,0.0213,0.0213,0.0284,0.0292,0.0306,0.0368,0.0373,0.0351,0.0353,0.0355,0.0357,0,0,0,0,0,0,0,0.0085,0.0042,0.0098,0.0128,0.0132,0.0171,0.0172,0.0173,0.0213,0.0213,0.0213,0.0213,0.0327,0.0332,0.0336,0.0362,0,0,0.035,0.0352,0,0,0,0,0,0,0,0,0.0041,0.0041,0.0098,0.0099,0.01,0.0171,0.0172,0.0173,0.0213,0.0213,0.0213,0.0213,0.0329,0.0332,0.0336,0,0,0,0,0,0,0,0,0,0,0,0,0,0,0,0.0098,0.0099,0,0.0171,0.0172,0.0173,0.0213,0.0213,0.0213,0.0213,0.033,0.0332,0.0335,0,0,0,0,0,0,0,0,0,0,0,0,0,0,0,0,0,0,0,0,0,0,0,0,0,0,0,0,0,0,0,0,0,0,0,0,0,0,0,0,0,0,0,0,0,0,0,0,0,0,0,0,0,0,0,0,0,0,0,0,0,0,0,0,0,0,0,0,0]}]],[[{"header":{"parameterUnit":"kt","parameterCategory":2,"dx":1,"dy":1,"la1":30.253999710083008,"la2":30.299108505249023,"lo1":-89.0895004272461,"lo2":-89.04439544677734,"nx":28,"ny":28,"refTime":"2022-10-23T21:00:00:Z","depth":"2","parameterNumber":2,"parameterNumberName":"U-component_of_CURRENTS"},"data":[-0.1664,-0.1672,-0.1702,-0.1758,-0.1834,-0.1859,-0.1887,-0.1815,-0.1806,-0.1702,-0.1717,-0.2034,-0.2183,-0.1937,-0.1935,-0.1811,-0.1756,-0.1721,-0.218,-0.1956,-0.1958,-0.2028,-0.2019,0,0,0,0,0,-0.1705,-0.1741,-0.1803,-0.189,-0.195,-0.2041,-0.215,-0.2104,-0.214,-0.2223,-0.2301,-0.2183,-0.2262,-0.2244,-0.2122,-0.2151,-0.2018,-0.2025,-0.1831,-0.1842,-0.185,-0.183,-0.1759,-0.1756,-0.1754,-0.1752,0,0,-0.178,-0.1802,-0.1866,-0.1938,-0.2035,-0.2131,-0.215,-0.2252,-0.2335,-0.2382,-0.256,-0.2569,-0.261,-0.2504,-0.2415,-0.23,-0.2427,-0.2269,-0.2262,-0.2258,-0.2269,-0.2287,-0.231,-0.2312,-0.2314,-0.2315,-0.2316,0,-0.1826,-0.1861,-0.1916,-0.2,-0.2067,-0.2158,-0.2246,-0.2298,-0.2419,-0.2488,-0.2598,-0.2654,-0.27,-0.2609,-0.2574,-0.249,-0.2301,-0.2298,-0.2404,-0.2058,-0.2065,-0.2049,-0.205,-0.2046,-0.2047,-0.2047,-0.2047,-0.2047,-0.1854,-0.1889,-0.2,-0.2041,-0.2084,-0.2156,-0.2216,-0.2306,-0.2367,-0.2488,-0.2523,-0.2572,-0.2619,-0.2587,-0.2514,-0.2457,-0.2402,-0.2296,-0.2241,-0.2347,-0.2334,-0.2328,-0.2322,-0.2051,-0.2051,-0.205,-0.205,0,-0.1858,-0.1922,-0.1998,-0.2098,-0.2128,-0.217,-0.2269,-0.2321,-0.2377,-0.2445,-0.2459,-0.2492,-0.2499,-0.2437,-0.2364,-0.2329,-0.2292,-0.2295,-0.2159,-0.2142,-0.2304,-0.2303,-0.2365,-0.2369,-0.2372,-0.2375,-0.2377,0,-0.1883,-0.1934,-0.2025,-0.2061,-0.2132,-0.2193,-0.2257,-0.2297,-0.2352,-0.2405,-0.2398,-0.2433,-0.235,-0.2333,-0.2264,-0.226,-0.2213,-0.2229,-0.2223,-0.2083,-0.2081,-0.2086,-0.2083,-0.2114,-0.2114,-0.2114,-0.2113,0,-0.1859,-0.1966,-0.203,-0.2062,-0.2161,-0.2192,-0.2233,-0.2278,-0.2315,-0.2339,-0.2367,-0.2342,-0.2336,-0.2283,-0.2232,-0.2207,-0.2186,-0.2139,-0.2199,-0.2205,-0.2067,-0.2063,-0.2113,-0.2113,-0.2113,-0.2113,-0.2113,0,-0.1875,-0.1932,-0.2014,-0.2105,-0.2129,-0.2168,-0.2229,-0.2266,-0.229,-0.2298,-0.2294,-0.228,-0.2266,-0.2226,-0.2184,-0.2185,-0.2151,-0.2119,-0.2117,-0.22,-0.2176,-0.204,-0.2069,-0.2095,-0.2095,-0.2095,-0.2094,0,-0.1837,-0.1926,-0.1966,-0.2043,-0.2091,-0.2119,-0.2159,-0.2187,-0.2199,-0.2221,-0.219,-0.2205,-0.2168,-0.2172,-0.2152,-0.2122,-0.2114,-0.2112,-0.207,-0.2069,-0.2153,-0.2215,-0.2068,-0.2068,-0.2093,-0.2093,-0.2093,0,-0.1803,-0.1898,-0.1906,-0.1946,-0.2006,-0.2038,-0.2077,-0.2114,-0.214,-0.2139,-0.2162,-0.2155,-0.2139,-0.2135,-0.2116,-0.2102,-0.211,-0.2079,-0.2077,-0.2075,-0.2095,-0.2199,-0.221,-0.2089,-0.2089,-0.2089,-0.2092,0,-0.1812,-0.1854,-0.1879,-0.1939,-0.1969,-0.2008,-0.2035,-0.2055,-0.2058,-0.2064,-0.2079,-0.2063,-0.2068,-0.2064,-0.2052,-0.2066,-0.2058,-0.2036,-0.2007,-0.2038,-0.2036,-0.2037,-0.201,-0.2009,-0.2009,-0.2008,0,0,-0.1761,-0.1813,-0.1834,-0.1879,-0.1907,-0.1915,-0.1958,-0.1971,-0.1998,-0.2005,-0.1992,-0.2003,-0.1992,-0.2006,-0.2018,-0.2013,-0.2007,-0.2007,-0.2027,-0.2029,-0.2031,-0.203,-0.2032,-0.2007,-0.2007,-0.2006,-0.2006,0,-0.1766,-0.1784,-0.1821,-0.1849,-0.1889,-0.1904,-0.1917,-0.1948,-0.1953,-0.1978,-0.1964,-0.1965,-0.1973,-0.1968,-0.1965,-0.2002,-0.1977,-0.2005,-0.2033,-0.2021,-0.2024,-0.2027,-0.2027,-0.2029,-0.2004,-0.2005,-0.2005,0,-0.1745,-0.1774,-0.1788,-0.1834,-0.1852,-0.1889,-0.1875,-0.1907,-0.193,-0.1902,-0.1928,-0.192,-0.1911,-0.1928,-0.1933,-0.1919,-0.1946,-0.194,-0.1944,-0.1947,-0.1932,-0.1936,-0.194,-0.189,-0.189,-0.1889,0,0,-0.1747,-0.1777,-0.1811,-0.1835,-0.1852,-0.1869,-0.1883,-0.1891,-0.1903,-0.1906,-0.1903,-0.1899,-0.1902,-0.1901,-0.1904,-0.1918,-0.1904,-0.1927,-0.1932,-0.1937,-0.1942,-0.1929,-0.1934,-0.1888,-0.1888,-0.1888,0,0,-0.1744,-0.1788,-0.1789,-0.1823,-0.1847,-0.1871,-0.1887,-0.1889,-0.1897,-0.1894,-0.1878,-0.1875,-0.1891,-0.188,-0.1868,-0.1893,-0.187,-0.1872,-0.1899,-0.1906,-0.1911,-0.1917,-0.1839,0,0,0,0,0,-0.1762,-0.1786,-0.1786,-0.1795,-0.1835,-0.1872,-0.1876,-0.1882,-0.1873,-0.1887,-0.1881,-0.1862,-0.1872,-0.1861,-0.186,-0.1874,-0.1874,-0.1876,-0.1879,-0.1917,-0.1924,-0.193,0,0,0,0,0,0,-0.1766,-0.1776,-0.1786,-0.1811,-0.1821,-0.187,-0.1853,-0.1855,-0.1872,-0.1871,-0.1865,-0.1862,-0.1849,-0.186,-0.1859,-0.1873,-0.1839,-0.1875,-0.1877,-0.1879,-0.192,-0.1926,-0.193,0,0,0,0,0,-0.1769,-0.1777,-0.1841,-0.1811,-0.1819,-0.1835,-0.1852,-0.1854,-0.1864,-0.1857,-0.1855,-0.1869,-0.185,-0.1849,-0.1859,-0.1874,-0.1839,-0.1839,-0.1876,-0.1878,-0.188,-0.1923,0,0,0,0,0,0,-0.1771,-0.1772,-0.1842,-0.1845,-0.1803,-0.1832,-0.1837,-0.1852,-0.1848,-0.1848,-0.186,-0.1858,-0.1851,-0.1849,-0.1848,-0.1875,-0.1839,-0.1839,-0.1839,-0.1878,-0.1879,-0.188,0,0,0,0,0,0,-0.1768,-0.1774,-0.1843,-0.1834,-0.1835,-0.183,-0.1834,-0.1836,-0.1847,-0.185,-0.185,-0.1859,-0.1844,-0.185,-0.1849,-0.1852,-0.1839,-0.1839,-0.1839,-0.1839,-0.1879,-0.188,0,0,0,0,0,0,-0.1771,-0.1776,-0.1833,-0.1834,-0.1835,-0.1862,-0.1829,-0.1863,-0.1862,-0.1849,-0.186,-0.1859,-0.1844,-0.1844,-0.185,-0.1853,-0.1852,-0.1839,-0.1839,-0.1839,-0.1839,0,0,0,0,0,0,0,-0.1773,-0.1737,-0.1831,-0.1834,-0.1835,-0.187,-0.187,-0.1871,-0.1862,-0.1861,-0.186,-0.186,-0.184,-0.184,-0.184,-0.1854,0,0,-0.1839,-0.1839,0,0,0,0,0,0,0,0,-0.1735,-0.1736,-0.1831,-0.1831,-0.1832,-0.187,-0.187,-0.187,-0.1862,-0.1861,-0.186,-0.186,-0.184,-0.184,-0.184,0,0,0,0,0,0,0,0,0,0,0,0,0,0,0,-0.1831,-0.1831,0,-0.187,-0.187,-0.187,-0.1862,-0.1861,-0.1861,-0.186,-0.184,-0.184,-0.184,0,0,0,0,0,0,0,0,0,0,0,0,0,0,0,0,0,0,0,0,0,0,0,0,0,0,0,0,0,0,0,0,0,0,0,0,0,0,0,0,0,0,0,0,0,0,0,0,0,0,0,0,0,0,0,0,0,0,0,0,0,0,0,0,0,0,0,0,0]}],[{"header":{"parameterUnit":"kt","parameterCategory":2,"dx":1,"dy":1,"la1":30.253999710083008,"la2":30.299108505249023,"lo1":-89.0895004272461,"lo2":-89.04439544677734,"nx":28,"ny":28,"refTime":"2022-10-23T21:00:00:Z","depth":"2","parameterNumber":3,"parameterNumberName":"V-component_of_CURRENTS"},"data":[-0.0883,-0.0996,-0.1052,-0.1159,-0.1178,-0.1159,-0.1124,-0.1241,-0.1179,-0.1137,-0.0948,-0.0541,0.0002,0.0253,0.0603,0.08,0.0765,0.0781,0.0822,0.0602,0.0593,0.0834,0.0775,0,0,0,0,0,-0.0847,-0.0913,-0.1,-0.1057,-0.1108,-0.1074,-0.1037,-0.1066,-0.1053,-0.0909,-0.074,-0.0383,0.0058,0.0433,0.0811,0.1083,0.1013,0.1072,0.093,0.0922,0.0916,0.0886,0.0983,0.0984,0.0985,0.0986,0,0,-0.0778,-0.0833,-0.0893,-0.0963,-0.099,-0.0989,-0.0975,-0.0966,-0.0922,-0.0802,-0.0572,-0.0339,0.0058,0.0527,0.0801,0.1011,0.1004,0.1002,0.0993,0.0986,0.0964,0.0936,0.1079,0.108,0.1081,0.1082,0.1082,0,-0.0723,-0.0734,-0.0772,-0.085,-0.0871,-0.0874,-0.0858,-0.0846,-0.0714,-0.0647,-0.047,-0.0303,0.0115,0.0412,0.076,0.0863,0.0875,0.0937,0.0944,0.0742,0.0704,0.0715,0.0703,0.081,0.0809,0.0809,0.0809,0.0808,-0.0645,-0.0677,-0.0706,-0.0738,-0.0736,-0.0744,-0.0743,-0.0652,-0.062,-0.0433,-0.04,-0.0165,0.0015,0.0378,0.0619,0.0857,0.0827,0.0913,0.0875,0.0842,0.0858,0.0842,0.0828,0.0803,0.0804,0.0804,0.0805,0,-0.0601,-0.0599,-0.0638,-0.0628,-0.0626,-0.0643,-0.0596,-0.0578,-0.0474,-0.0402,-0.0364,-0.0153,0.0054,0.0242,0.0452,0.0568,0.0734,0.0799,0.0679,0.0699,0.0815,0.0804,0.0964,0.0968,0.0971,0.0974,0.0976,0,-0.0527,-0.0549,-0.0546,-0.0564,-0.0587,-0.0528,-0.0515,-0.0458,-0.0367,-0.0319,-0.0177,-0.0096,0.0091,0.0233,0.0343,0.0546,0.0525,0.0659,0.0693,0.0599,0.0597,0.0572,0.0566,0.0613,0.0612,0.0611,0.0611,0,-0.0463,-0.0469,-0.0504,-0.0499,-0.0465,-0.0453,-0.0425,-0.0335,-0.0302,-0.0186,-0.0138,-0.0005,0.0073,0.0187,0.0338,0.0319,0.0514,0.0504,0.064,0.0645,0.0622,0.0623,0.061,0.061,0.0609,0.0609,0.0609,0,-0.0388,-0.0404,-0.0439,-0.0418,-0.0412,-0.0402,-0.0344,-0.0313,-0.0206,-0.0156,-0.0066,0.0012,0.0114,0.0137,0.0299,0.0259,0.0333,0.0398,0.0404,0.0507,0.0522,0.0529,0.0566,0.0468,0.0466,0.0465,0.0464,0,-0.0336,-0.0371,-0.0336,-0.0351,-0.0362,-0.0293,-0.0268,-0.0214,-0.0155,-0.0097,-0.0006,0.0053,0.0092,0.0126,0.0185,0.0278,0.0326,0.0267,0.042,0.0425,0.0487,0.0531,0.0445,0.0543,0.0446,0.0448,0.0449,0,-0.0293,-0.028,-0.0281,-0.0283,-0.0238,-0.0231,-0.0198,-0.0154,-0.0127,-0.0066,-0.0022,0.0055,0.0103,0.0142,0.0193,0.0244,0.0298,0.0271,0.0276,0.0308,0.0421,0.0496,0.0515,0.0322,0.0324,0.0326,0.0435,0,-0.024,-0.024,-0.0244,-0.0227,-0.0208,-0.0204,-0.0154,-0.0128,-0.0091,-0.005,0.0014,0.008,0.0148,0.0165,0.0196,0.0251,0.0266,0.0283,0.0303,0.0306,0.0352,0.0363,0.025,0.0251,0.0252,0.0253,0,0,-0.0196,-0.0205,-0.0169,-0.017,-0.0158,-0.0105,-0.011,-0.0077,-0.0027,-0.0001,0.001,0.0117,0.0161,0.0222,0.0221,0.0242,0.0278,0.0249,0.0297,0.0302,0.0306,0.035,0.036,0.0254,0.0254,0.0255,0.0255,0,-0.0178,-0.0157,-0.0169,-0.0149,-0.0119,-0.0091,-0.0088,-0.0046,-0.0023,0.001,0.0057,0.0105,0.0164,0.0211,0.0242,0.0248,0.0297,0.0257,0.0243,0.0302,0.0305,0.0308,0.0352,0.036,0.0257,0.0257,0.0257,0,-0.0144,-0.0125,-0.0127,-0.01,-0.0077,-0.0068,-0.0032,-0.0016,-0.0003,0.0056,0.0085,0.013,0.0189,0.0224,0.0244,0.0253,0.0317,0.0289,0.0286,0.0295,0.0358,0.0361,0.0364,0.0328,0.0328,0.0328,0,0,-0.0127,-0.0128,-0.0091,-0.0092,-0.0081,-0.0041,-0.0027,-0.0005,0.0032,0.0048,0.0091,0.0139,0.0183,0.0208,0.0249,0.0282,0.0324,0.0294,0.0291,0.0288,0.0296,0.0357,0.036,0.0328,0.0328,0.0328,0,0,-0.0117,-0.0088,-0.0073,-0.0073,-0.0048,-0.0005,-0.0002,0.0023,0.0058,0.0064,0.0119,0.0133,0.0171,0.0205,0.0196,0.0255,0.0272,0.0275,0.0226,0.0222,0.0219,0.0217,0.0231,0,0,0,0,0,-0.0083,-0.0093,-0.008,-0.0075,-0.0036,-0.0013,-0.0006,0.0026,0.0041,0.0042,0.0087,0.0115,0.021,0.0203,0.0217,0.0222,0.0325,0.0325,0.0326,0.0271,0.0267,0.0263,0,0,0,0,0,0,-0.0081,-0.0076,-0.0079,-0.004,-0.0031,-0.0012,0.0014,0.0023,0.0041,0.0045,0.0106,0.0117,0.0153,0.02,0.0211,0.0215,0.0228,0.0325,0.0326,0.0326,0.027,0.0266,0.0263,0,0,0,0,0,-0.0079,-0.0075,-0.0025,-0.0039,-0.0031,0.001,0.0014,0.0022,0.0038,0.0095,0.0106,0.006,0.0151,0.0164,0.0207,0.0209,0.022,0.0224,0.0325,0.0326,0.0326,0.0268,0,0,0,0,0,0,-0.0077,-0.0063,-0.0023,-0.0018,-0.0039,0.001,0.0017,0.002,0.0088,0.0098,0.0051,0.0054,0.0151,0.0161,0.0171,0.0204,0.0214,0.0218,0.0221,0.0326,0.0326,0.0326,0,0,0,0,0,0,-0.0065,-0.006,-0.002,-0.0022,-0.0017,0.001,0.0016,0.0057,0.0089,0.0041,0.0045,0.0052,0.0144,0.0159,0.0166,0.0229,0.0209,0.0213,0.0216,0.0218,0.0326,0.0326,0,0,0,0,0,0,-0.0062,-0.0057,-0.0023,-0.0019,-0.0015,0.0037,0.0049,0.0091,0.007,0.0039,0.007,0.0071,0.0142,0.015,0.0163,0.0222,0.0228,0.021,0.0212,0.0214,0.0215,0,0,0,0,0,0,0,-0.0059,-0.0101,-0.005,-0.0017,-0.0014,0.0023,0.0024,0.0025,0.007,0.007,0.007,0.0071,0.0187,0.0191,0.0196,0.0217,0,0,0.0209,0.0211,0,0,0,0,0,0,0,0,-0.0102,-0.0102,-0.0049,-0.0049,-0.0048,0.0023,0.0024,0.0025,0.007,0.007,0.007,0.007,0.0188,0.0191,0.0195,0,0,0,0,0,0,0,0,0,0,0,0,0,0,0,-0.0049,-0.0049,0,0.0023,0.0024,0.0025,0.007,0.007,0.007,0.007,0.0189,0.0192,0.0195,0,0,0,0,0,0,0,0,0,0,0,0,0,0,0,0,0,0,0,0,0,0,0,0,0,0,0,0,0,0,0,0,0,0,0,0,0,0,0,0,0,0,0,0,0,0,0,0,0,0,0,0,0,0,0,0,0,0,0,0,0,0,0,0,0,0,0,0,0]}]],[[{"header":{"parameterUnit":"kt","parameterCategory":2,"dx":1,"dy":1,"la1":30.253999710083008,"la2":30.299108505249023,"lo1":-89.0895004272461,"lo2":-89.04439544677734,"nx":28,"ny":28,"refTime":"2022-10-23T21:00:00:Z","depth":"4","parameterNumber":2,"parameterNumberName":"U-component_of_CURRENTS"},"data":[-0.1059,-0.1105,-0.1119,-0.1003,-0.096,-0.0957,-0.1048,-0.1194,-0.1249,-0.1508,-0.152,-0.175,-0.1753,-0.1873,-0.1788,-0.1799,-0.1689,-0.1929,-0.1925,-0.1795,-0.1796,-0.1797,-0.1791,0,0,0,0,0,-0.1103,-0.1112,-0.1165,-0.1174,-0.1218,-0.1237,-0.1401,-0.149,-0.1694,-0.1741,-0.1837,-0.1882,-0.1893,-0.1931,-0.185,-0.1944,-0.1844,-0.1841,-0.1721,-0.1796,-0.1797,-0.1791,0,0,0,0,0,0,-0.1157,-0.1187,-0.1268,-0.1335,-0.1402,-0.1394,-0.1477,-0.1568,-0.1644,-0.1888,-0.1932,-0.2028,-0.2136,-0.2063,-0.2014,-0.1949,-0.1903,-0.181,-0.181,-0.1811,-0.1808,-0.1814,-0.1803,0,0,0,0,0,-0.1203,-0.1266,-0.1335,-0.1425,-0.1499,-0.1555,-0.165,-0.1685,-0.1835,-0.1982,-0.2076,-0.2094,-0.212,-0.2063,-0.2014,-0.1935,-0.1883,-0.1864,-0.1863,-0.1807,-0.1811,-0.1794,-0.1793,-0.1803,-0.1803,-0.1803,-0.1803,0,-0.1245,-0.129,-0.1443,-0.149,-0.1553,-0.165,-0.1704,-0.1823,-0.1875,-0.2052,-0.2075,-0.215,-0.2176,-0.2078,-0.2043,-0.1946,-0.1917,-0.1869,-0.181,-0.1813,-0.1796,-0.1795,-0.1794,-0.1804,-0.1804,-0.1804,-0.1804,0,-0.1263,-0.1346,-0.1441,-0.1573,-0.1615,-0.1675,-0.1799,-0.1844,-0.194,-0.2019,-0.2044,-0.2108,-0.2118,-0.2075,-0.2021,-0.1943,-0.1884,-0.1863,-0.1899,-0.1882,-0.1797,-0.1796,-0.1806,-0.1806,-0.1806,-0.1805,-0.1805,0,-0.1307,-0.1373,-0.1494,-0.1536,-0.1625,-0.1705,-0.179,-0.1848,-0.1923,-0.1984,-0.2012,-0.2053,-0.2009,-0.2003,-0.1944,-0.1895,-0.1909,-0.1825,-0.1809,-0.1817,-0.1816,-0.1794,-0.1789,-0.1833,-0.1833,-0.1833,-0.1833,0,-0.13,-0.1421,-0.1497,-0.1535,-0.1653,-0.1702,-0.1761,-0.1833,-0.188,-0.1938,-0.1976,-0.1977,-0.1992,-0.1951,-0.1918,-0.1898,-0.1887,-0.1847,-0.1808,-0.1806,-0.1792,-0.1787,-0.1832,-0.1832,-0.1832,-0.1832,-0.1832,0,-0.1327,-0.1388,-0.1481,-0.1587,-0.1615,-0.167,-0.1759,-0.1813,-0.1866,-0.1892,-0.1912,-0.1916,-0.1926,-0.1893,-0.1873,-0.1873,-0.1847,-0.1822,-0.182,-0.1787,-0.1752,-0.1739,-0.1796,-0.1796,-0.1795,-0.1795,-0.1795,0,-0.1299,-0.1389,-0.1433,-0.1525,-0.1576,-0.1623,-0.1679,-0.173,-0.1767,-0.1812,-0.1807,-0.1846,-0.1821,-0.1838,-0.183,-0.1812,-0.181,-0.1805,-0.1765,-0.1764,-0.1738,-0.1785,-0.1789,-0.1792,-0.1792,-0.1792,-0.1793,0,-0.1265,-0.1364,-0.1376,-0.1422,-0.1497,-0.1533,-0.1596,-0.1652,-0.1694,-0.1726,-0.1768,-0.1794,-0.179,-0.1796,-0.1788,-0.1783,-0.1804,-0.1762,-0.1761,-0.1755,-0.1798,-0.1782,-0.1783,-0.1787,-0.1787,-0.1788,-0.179,0,-0.1276,-0.1324,-0.135,-0.1414,-0.1453,-0.1501,-0.1542,-0.1583,-0.1611,-0.1631,-0.1679,-0.1685,-0.1711,-0.1717,-0.1712,-0.1742,-0.1732,-0.171,-0.1674,-0.1716,-0.1712,-0.1715,-0.1674,-0.1673,-0.1672,-0.1672,0,0,-0.123,-0.1277,-0.13,-0.1345,-0.138,-0.1405,-0.1454,-0.1482,-0.1536,-0.1557,-0.1557,-0.1609,-0.1614,-0.1647,-0.1669,-0.1671,-0.1665,-0.1665,-0.17,-0.1704,-0.1707,-0.1705,-0.1708,-0.167,-0.167,-0.1669,-0.1669,0,-0.1225,-0.1248,-0.1283,-0.1317,-0.1367,-0.1388,-0.1406,-0.1452,-0.1476,-0.1528,-0.1527,-0.1552,-0.1589,-0.1594,-0.16,-0.1656,-0.163,-0.1666,-0.1699,-0.1693,-0.1697,-0.1701,-0.1701,-0.1704,-0.1667,-0.1667,-0.1667,0,-0.1201,-0.1227,-0.1244,-0.1289,-0.1317,-0.1359,-0.1353,-0.1399,-0.1436,-0.1423,-0.1484,-0.1491,-0.1497,-0.1536,-0.1555,-0.1537,-0.1591,-0.1581,-0.1586,-0.1586,-0.1577,-0.1582,-0.1588,-0.1517,-0.1516,-0.1516,0,0,-0.1198,-0.1227,-0.126,-0.1288,-0.1308,-0.1338,-0.1361,-0.138,-0.1409,-0.1426,-0.1444,-0.1462,-0.1481,-0.1495,-0.1511,-0.1545,-0.1529,-0.1564,-0.1571,-0.1577,-0.158,-0.1572,-0.1578,-0.1514,-0.1514,-0.1514,0,0,-0.1193,-0.1231,-0.124,-0.1272,-0.1305,-0.1334,-0.1362,-0.1376,-0.141,-0.1418,-0.1418,-0.1423,-0.1467,-0.1462,-0.1443,-0.1501,-0.1471,-0.1475,-0.1506,-0.1515,-0.1521,-0.1521,-0.1416,0,0,0,0,0,-0.1203,-0.1225,-0.1232,-0.1241,-0.1288,-0.1328,-0.1336,-0.1361,-0.1367,-0.139,-0.141,-0.1396,-0.1454,-0.1436,-0.1439,-0.1466,-0.1494,-0.1498,-0.1501,-0.1549,-0.1558,-0.1566,0,0,0,0,0,0,-0.1206,-0.1216,-0.1232,-0.1259,-0.127,-0.1326,-0.132,-0.1328,-0.1365,-0.1368,-0.1393,-0.1395,-0.1391,-0.1433,-0.1437,-0.1462,-0.1415,-0.1496,-0.1499,-0.1501,-0.1552,-0.156,-0.1566,0,0,0,0,0,-0.1209,-0.1217,-0.1286,-0.1259,-0.1269,-0.1307,-0.132,-0.1326,-0.136,-0.1366,-0.1371,-0.1382,-0.1391,-0.1395,-0.1435,-0.1461,-0.1413,-0.1414,-0.1498,-0.15,-0.1502,-0.1556,0,0,0,0,0,0,-0.1211,-0.1221,-0.1288,-0.1293,-0.1258,-0.1306,-0.1313,-0.1325,-0.1356,-0.1362,-0.1352,-0.1353,-0.1391,-0.1394,-0.1397,-0.1462,-0.1411,-0.1412,-0.1413,-0.1499,-0.1501,-0.1503,0,0,0,0,0,0,-0.1217,-0.1224,-0.129,-0.1288,-0.1292,-0.1304,-0.1311,-0.1324,-0.1356,-0.134,-0.1342,-0.1352,-0.1382,-0.1393,-0.1396,-0.1415,-0.1409,-0.141,-0.1411,-0.1412,-0.1501,-0.1502,0,0,0,0,0,0,-0.1221,-0.1227,-0.1287,-0.129,-0.1294,-0.1342,-0.1315,-0.1359,-0.1365,-0.1337,-0.1366,-0.1366,-0.1381,-0.1384,-0.1395,-0.1413,-0.1414,-0.1409,-0.141,-0.1411,-0.1411,0,0,0,0,0,0,0,-0.1224,-0.1176,-0.1265,-0.1292,-0.1295,-0.1332,-0.1333,-0.1334,-0.1365,-0.1366,-0.1366,-0.1366,-0.1402,-0.1404,-0.1405,-0.1411,0,0,-0.1409,-0.141,0,0,0,0,0,0,0,0,-0.1174,-0.1176,-0.1265,-0.1266,-0.1267,-0.1333,-0.1333,-0.1334,-0.1366,-0.1366,-0.1366,-0.1366,-0.1403,-0.1404,-0.1405,0,0,0,0,0,0,0,0,0,0,0,0,0,0,0,-0.1265,-0.1266,0,-0.1333,-0.1333,-0.1334,-0.1366,-0.1366,-0.1366,-0.1366,-0.1403,-0.1404,-0.1405,0,0,0,0,0,0,0,0,0,0,0,0,0,0,0,0,0,0,0,0,0,0,0,0,0,0,0,0,0,0,0,0,0,0,0,0,0,0,0,0,0,0,0,0,0,0,0,0,0,0,0,0,0,0,0,0,0,0,0,0,0,0,0,0,0,0,0,0,0]}],[{"header":{"parameterUnit":"kt","parameterCategory":2,"dx":1,"dy":1,"la1":30.253999710083008,"la2":30.299108505249023,"lo1":-89.0895004272461,"lo2":-89.04439544677734,"nx":28,"ny":28,"refTime":"2022-10-23T21:00:00:Z","depth":"4","parameterNumber":3,"parameterNumberName":"V-component_of_CURRENTS"},"data":[-0.0921,-0.1002,-0.1036,-0.1179,-0.1252,-0.1348,-0.1363,-0.1278,-0.1187,-0.1008,-0.0815,-0.0603,-0.0266,-0.0356,0.0091,0.0157,0.0175,0.0609,0.0612,0.0635,0.063,0.0626,0.055,0,0,0,0,0,-0.0891,-0.095,-0.1024,-0.1102,-0.119,-0.1232,-0.1235,-0.1195,-0.1065,-0.0953,-0.0837,-0.0607,-0.0247,-0.0059,0.01,0.0215,0.0411,0.0404,0.0412,0.0632,0.0627,0.0555,0,0,0,0,0,0,-0.0855,-0.0897,-0.0949,-0.1009,-0.1086,-0.1155,-0.1136,-0.108,-0.103,-0.0808,-0.0733,-0.043,-0.0223,0.0069,0.0243,0.0409,0.0423,0.0432,0.0438,0.0435,0.035,0.0285,0.0362,0,0,0,0,0,-0.081,-0.0828,-0.0853,-0.093,-0.0969,-0.1008,-0.1011,-0.1004,-0.0893,-0.0792,-0.0596,-0.0385,-0.0149,0.0098,0.0295,0.044,0.0539,0.0599,0.0596,0.0531,0.05,0.0511,0.0498,0.0607,0.0606,0.0605,0.0605,0,-0.0758,-0.078,-0.0806,-0.084,-0.0838,-0.0848,-0.0864,-0.0786,-0.0772,-0.059,-0.0572,-0.0348,-0.0206,0.0096,0.028,0.0502,0.0516,0.0586,0.0515,0.049,0.0505,0.0493,0.0482,0.0601,0.0601,0.0602,0.0602,0,-0.0732,-0.0725,-0.0751,-0.0735,-0.0736,-0.0749,-0.0718,-0.0715,-0.0616,-0.0561,-0.0528,-0.0328,-0.0136,0.0038,0.0237,0.0313,0.0453,0.0501,0.0409,0.0428,0.048,0.047,0.0594,0.0595,0.0597,0.0598,0.0599,0,-0.0676,-0.0691,-0.0681,-0.0689,-0.0706,-0.065,-0.0642,-0.059,-0.0516,-0.048,-0.0347,-0.0277,-0.0103,0.0031,0.0133,0.0294,0.0305,0.0368,0.0396,0.0307,0.0299,0.0341,0.0335,0.0378,0.0377,0.0376,0.0375,0,-0.0638,-0.0628,-0.0647,-0.0638,-0.0598,-0.0588,-0.0562,-0.0485,-0.0459,-0.0354,-0.0315,-0.0192,-0.0119,-0.0016,0.0126,0.0105,0.0291,0.0278,0.0357,0.0359,0.0333,0.0329,0.0374,0.0374,0.0374,0.0373,0.0373,0,-0.0579,-0.0582,-0.0597,-0.0569,-0.0562,-0.0551,-0.0498,-0.0466,-0.0374,-0.0329,-0.0251,-0.018,-0.0087,-0.0072,0.0082,0.0043,0.0114,0.0175,0.0181,0.0221,0.0234,0.0228,0.0256,0.0255,0.0253,0.0252,0.0251,0,-0.0547,-0.0559,-0.0526,-0.0526,-0.0525,-0.0468,-0.0441,-0.0391,-0.0338,-0.0284,-0.0205,-0.0147,-0.0111,-0.0079,-0.0028,0.0062,0.0107,0.0047,0.0197,0.0202,0.0202,0.0234,0.0105,0.0231,0.0234,0.0236,0.0237,0,-0.0519,-0.0493,-0.0493,-0.0489,-0.0441,-0.0431,-0.0397,-0.0351,-0.0327,-0.0267,-0.0224,-0.0144,-0.0104,-0.0064,-0.0015,0.0028,0.0081,0.0055,0.0059,0.0094,0.0197,0.0209,0.0222,0.0097,0.0098,0.01,0.0223,0,-0.0468,-0.0467,-0.0467,-0.0443,-0.0423,-0.0414,-0.0366,-0.0339,-0.0305,-0.0266,-0.02,-0.0134,-0.0066,-0.0046,-0.0014,0.0038,0.0058,0.0069,0.0082,0.0088,0.0142,0.0153,0.0044,0.0045,0.0045,0.0046,0,0,-0.0442,-0.0444,-0.0414,-0.0407,-0.0393,-0.0347,-0.0343,-0.0311,-0.0257,-0.0232,-0.0219,-0.0107,-0.0061,0.0002,0.0007,0.003,0.0067,0.0035,0.0082,0.0086,0.0089,0.0141,0.015,0.0047,0.0048,0.0048,0.0048,0,-0.0421,-0.041,-0.0416,-0.0394,-0.0363,-0.0335,-0.0332,-0.0289,-0.0264,-0.0225,-0.0177,-0.0129,-0.0059,-0.0012,0.0021,0.0036,0.0082,0.0051,0.0035,0.0087,0.0089,0.0092,0.0142,0.015,0.005,0.005,0.005,0,-0.0391,-0.0375,-0.0377,-0.0353,-0.033,-0.0315,-0.0286,-0.0268,-0.0251,-0.0194,-0.0157,-0.011,-0.0047,-0.0004,0.002,0.0026,0.0096,0.0069,0.0066,0.0073,0.0127,0.013,0.0132,0.0101,0.0101,0.0101,0,0,-0.0373,-0.0374,-0.034,-0.0346,-0.0334,-0.0295,-0.0282,-0.0259,-0.022,-0.0202,-0.0156,-0.0104,-0.0055,-0.0028,0.0019,0.0055,0.0094,0.0072,0.0069,0.0067,0.0072,0.0126,0.0128,0.01,0.01,0.01,0,0,-0.0361,-0.0334,-0.0322,-0.0328,-0.0302,-0.026,-0.0256,-0.0233,-0.0193,-0.0187,-0.0131,-0.0116,-0.007,-0.0035,-0.0049,0.0022,0.0037,0.0041,-0.001,-0.0012,-0.0014,-0.0021,-0.0015,0,0,0,0,0,-0.0325,-0.0339,-0.0329,-0.0326,-0.0294,-0.0268,-0.0261,-0.0229,-0.0216,-0.0212,-0.0164,-0.0138,-0.0029,-0.004,-0.0027,-0.0018,0.0093,0.0094,0.0095,0.004,0.0038,0.0035,0,0,0,0,0,0,-0.0324,-0.0321,-0.0328,-0.0291,-0.0283,-0.0268,-0.0243,-0.0234,-0.0216,-0.0212,-0.0148,-0.0136,-0.0098,-0.0044,-0.0033,-0.0026,-0.0019,0.0093,0.0094,0.0095,0.0039,0.0037,0.0035,0,0,0,0,0,-0.0323,-0.032,-0.0283,-0.029,-0.0283,-0.0243,-0.0243,-0.0235,-0.0218,-0.016,-0.0148,-0.0195,-0.0099,-0.0086,-0.0037,-0.0032,-0.0027,-0.0023,0.0094,0.0095,0.0096,0.0038,0,0,0,0,0,0,-0.0321,-0.0306,-0.028,-0.0276,-0.0288,-0.0242,-0.0236,-0.0236,-0.0165,-0.0155,-0.0204,-0.0202,-0.01,-0.009,-0.0079,-0.0037,-0.0033,-0.0029,-0.0026,0.0095,0.0095,0.0096,0,0,0,0,0,0,-0.0307,-0.0303,-0.0278,-0.0278,-0.0273,-0.0242,-0.0236,-0.0195,-0.0164,-0.0213,-0.021,-0.0204,-0.0106,-0.0092,-0.0084,-0.0021,-0.0038,-0.0034,-0.0031,-0.0029,0.0095,0.0096,0,0,0,0,0,0,-0.0304,-0.0301,-0.0278,-0.0275,-0.0271,-0.022,-0.0202,-0.0165,-0.0185,-0.0216,-0.0184,-0.0184,-0.0109,-0.01,-0.0088,-0.0028,-0.0023,-0.0038,-0.0035,-0.0033,-0.0032,0,0,0,0,0,0,0,-0.0302,-0.0339,-0.0307,-0.0273,-0.0269,-0.0238,-0.0236,-0.0235,-0.0185,-0.0185,-0.0184,-0.0184,-0.0061,-0.0057,-0.0052,-0.0034,0,0,-0.0038,-0.0036,0,0,0,0,0,0,0,0,-0.0339,-0.0339,-0.0306,-0.0306,-0.0305,-0.0238,-0.0237,-0.0235,-0.0185,-0.0185,-0.0184,-0.0184,-0.006,-0.0056,-0.0053,0,0,0,0,0,0,0,0,0,0,0,0,0,0,0,-0.0306,-0.0306,0,-0.0237,-0.0237,-0.0236,-0.0185,-0.0185,-0.0185,-0.0184,-0.0059,-0.0056,-0.0053,0,0,0,0,0,0,0,0,0,0,0,0,0,0,0,0,0,0,0,0,0,0,0,0,0,0,0,0,0,0,0,0,0,0,0,0,0,0,0,0,0,0,0,0,0,0,0,0,0,0,0,0,0,0,0,0,0,0,0,0,0,0,0,0,0,0,0,0,0]}]]]